Location: Nebula Knoll Observatory
(43.6666°N, 71.0000°W)
Time: 13:59:31
(UTC-04:00)

Daily predictions for brighter satellites

Satellite Brightness Start Highest point End
(mag) Time Altitude Azimuth Time Altitude Azimuth Time Altitude Azimuth
Cosmos 2369 3.7 19:42:01 10° SSW 19:47:39 70° ESE 19:53:21 10° NNE
ALOS 2.5 19:44:29 10° SSE 19:49:01 52° ENE 19:53:33 10° N
Meteor 2-15 4.5 19:43:42 10° N 19:49:49 87° E 19:55:52 10° S
Cosmos 1821 Rocket 4.1 19:44:12 10° S 19:50:18 87° W 19:56:26 10° N
Cosmos 1898 Rocket 4.1 19:45:23 10° N 19:50:23 41° ENE 19:55:20 10° SE
EO 1 Delta rocket 4.3 19:48:53 10° NNE 19:53:29 45° E 19:58:47 10° S
Cosmos 1605 Rocket 4.1 19:47:24 10° S 19:53:35 59° E 19:59:43 10° NNE
USA 186 2.4 19:52:29 10° SE 19:55:09 30° ENE 19:57:40 10° N
H-2A R/B 3.2 19:51:43 10° SE 19:55:28 45° ENE 19:59:15 10° N
Meteor 2-15 Rocket 4.5 19:50:43 10° N 19:56:49 85° E 20:02:54 10° S
DELTA 2 R/B (1) 4.3 19:52:08 10° W 19:57:25 44° SSW 20:02:40 10° SE
FENGYUN 3A 3.7 19:54:02 10° SSE 19:59:19 66° ENE 20:04:38 10° N
Cosmos 1656 3.8 19:54:44 10° S 20:00:08 50° ESE 20:05:29 10° NE
Cosmos 2084 3.4 19:57:02 10° NW 20:01:05 72° NE 20:05:20 10° SE
H-2A R/B 4.0 20:01:24 10° E 20:03:14 13° ENE 20:05:04 10° NE
Cosmos 468 Rocket 4.5 19:58:45 10° SSE 20:03:24 37° ESE 20:08:06 10° NE
Cosmos 1626 Rocket 3.6 19:59:29 10° N 20:03:50 58° E 20:08:06 10° SSE
Cosmos 2263 Rocket 4.3 20:06:02 10° NNE 20:07:06 10° NE 20:08:10 10° NE
Meteor 1-29 4.0 20:04:35 10° N 20:07:57 51° WNW 20:11:20 10° SSW
Cosmos 1455 Rocket 3.4 20:05:18 10° SSW 20:09:36 70° W 20:13:59 10° N
Cosmos 1975 2.9 20:07:26 10° S 20:11:28 60° E 20:15:32 10° NNE
Cosmos 220 Rocket 4.0 20:07:33 10° NNW 20:11:48 86° WSW 20:16:00 10° SSE
Cosmos 2227 Rocket 3.0 20:08:06 10° NNW 20:13:37 55° WSW 20:19:06 10° S
Cosmos 1602 Rocket 3.5 20:09:35 10° N 20:14:04 75° E 20:18:28 10° SSE
Lacrosse 5 rocket 2.6 20:10:55 10° WNW 20:14:15 31° SW 20:17:29 10° SSE
Tiangong 1 1.2 20:12:55 10° W 20:15:59 59° SSW 20:18:16 16° ESE
Cosmos 1814 Rocket 4.4 20:11:08 10° S 20:16:05 41° ESE 20:21:03 10° NE
Cosmos 2322 Rocket 3.9 20:19:07 12° E 20:19:07 12° E 20:21:04 10° ENE
CZ-2D R/B 3.3 20:15:41 10° SSE 20:19:33 83° WSW 20:23:28 10° NNW
Cosmos 1500 3.4 20:17:27 10° SSE 20:21:03 47° E 20:24:42 10° NNE
Cosmos 2123 Rocket 4.4 20:16:36 10° NNW 20:22:42 66° W 20:28:48 10° S
Cosmos 1340 3.8 20:23:56 10° NNE 20:27:13 27° ENE 20:29:01 19° ESE
Cosmos 2297 Rocket 2.8 20:22:59 10° NNW 20:28:32 58° WSW 20:34:03 10° S
Cosmos 1459 Rocket 4.2 20:24:58 10° SSE 20:30:42 46° E 20:36:30 10° NNE
Cosmos 858 Rocket 4.5 20:26:13 10° NNW 20:31:32 81° ENE 20:36:48 10° SSE
Iridium 4 Rocket 3.3 20:35:10 10° N 20:40:12 85° W 20:44:44 10° S
Cosmos 1515 4.1 20:40:16 10° NNW 20:44:05 64° W 20:47:52 10° S
Cosmos 2058 Rocket 4.2 20:45:10 24° ESE 20:46:09 26° E 20:49:52 10° NNE
Cosmos 1606 Rocket 4.0 20:45:32 18° SSE 20:48:24 41° E 20:52:34 10° NNE
Envisat 3.1 20:46:26 19° SE 20:49:54 56° ENE 20:54:52 10° N
Lacrosse 5 2.1 20:45:29 10° NW 20:50:30 64° SW 20:53:46 21° SSE
Cosmos 1937 Rocket 3.5 20:45:20 10° NNW 20:50:38 87° WSW 20:54:56 16° SSE
Cosmos 1939 Rocket 3.0 20:48:12 23° SSE 20:50:39 59° ENE 20:54:46 10° N
Resurs 01 Rocket 4.5 20:51:17 10° SW 20:54:00 16° W 20:56:45 10° NW
Cosmos 990 Rocket 3.9 20:54:35 10° NNW 20:59:53 84° ENE 21:03:09 24° SSE
SPOT 5 3.3 20:58:57 29° ESE 21:00:56 44° ENE 21:05:26 10° N
Cosmos 1743 2.6 20:59:21 11° S 21:03:06 84° E 21:07:02 10° N
Cosmos 1697 Rocket 3.0 20:58:32 10° SSW 21:04:10 69° WNW 21:09:49 10° NNE
SJ-11-01 4.5 21:03:16 16° S 21:07:03 71° WSW 21:11:45 10° NNW
Cosmos 1726 Rocket 3.5 21:09:04 31° SSE 21:11:01 61° E 21:15:22 10° NNE
ERS-1 Rocket 3.2 21:08:34 17° S 21:12:25 71° WSW 21:17:27 10° NNW
Cosmos 1802 Rocket 4.0 21:06:30 10° S 21:12:55 84° E 21:19:23 10° N
H-2A R/B 3.5 21:15:51 18° ENE 21:16:10 19° ENE 21:19:31 10° NNE
SL-16 R/B 2.7 21:16:08 35° ESE 21:16:19 35° ESE 21:21:24 10° NE
RESURS DK-1 3.5 21:12:44 10° NW 21:16:36 39° WSW 21:18:51 21° SSW
ARGOS 3.8 21:16:12 32° E 21:17:28 37° ENE 21:22:22 10° N
Terra 3.7 21:20:22 16° ENE 21:20:22 16° ENE 21:23:11 10° NNE
CZ-4 DEB 4.3 21:19:01 22° SW 21:20:24 33° W 21:23:18 10° NNW
Cosmos 2016 Rocket 3.9 21:14:19 10° S 21:20:27 81° E 21:26:41 10° N
Cosmos 1825 Rocket 4.1 21:20:10 10° NNW 21:24:31 58° W 21:26:56 25° SSW
Cosmos 1763 Rocket 3.4 21:20:42 10° SSW 21:25:48 84° WNW 21:30:54 10° NNE
MetOp-B 4.1 21:25:58 42° SE 21:27:46 70° ENE 21:33:06 10° N
OAO 2 Rocket 4.5 21:23:54 10° WSW 21:28:05 27° S 21:28:13 27° S
Cosmos 1980 Rocket 2.4 21:22:29 10° SSW 21:28:08 72° WNW 21:33:51 10° NNE
Cosmos 2360 Rocket 4.4 21:32:39 10° ENE 21:32:39 10° ENE 21:32:43 10° ENE
Cosmos 2173 Rocket 4.5 21:26:16 10° SSW 21:32:33 62° W 21:38:49 10° N
SPOT 1/Viking Rocket 3.7 21:34:23 49° ESE 21:35:15 55° ENE 21:40:20 10° N
Cosmos 1953 Rocket 4.0 21:31:45 10° NNW 21:36:09 60° W 21:37:48 35° SSW
Cosmos 1842 3.1 21:32:51 10° N 21:36:46 82° W 21:36:55 80° SW
Cosmos 2098 Rocket 3.8 21:31:59 18° S 21:37:07 83° E 21:42:39 10° N
USA 215 4.1 21:34:13 24° E 21:37:45 42° NNE 21:43:49 10° NW
H-2A R/B 2.2 21:37:53 51° SSW 21:38:42 64° WSW 21:42:51 10° NNW
Cosmos 1125 Rocket 3.4 21:33:36 10° NNW 21:38:50 77° ENE 21:39:49 58° SE
Nimbus 7 Rocket 4.4 21:34:26 10° NNE 21:40:33 90° WNW 21:45:42 15° SSW
SL-19 R/B 4.1 21:36:20 10° NNE 21:41:41 55° ESE 21:41:51 54° ESE
Cosmos 2228 3.1 21:43:11 63° NE 21:43:11 63° NE 21:46:58 10° NNE
SWAS 4.4 21:44:01 54° SW 21:44:57 83° WNW 21:49:19 10° NNE
Cosmos 1666 2.9 21:45:23 65° W 21:45:24 65° W 21:49:12 10° N
USA 245 4.4 21:45:28 48° SSE 21:47:24 79° ENE 21:53:42 10° N
Cosmos 1864 Rocket 4.3 21:46:03 33° S 21:49:00 88° E 21:55:10 10° N
Cosmos 841 Rocket 4.0 21:45:03 10° SSW 21:50:13 59° WNW 21:55:23 10° NNE
Tiangong 1 4.0 21:49:50 10° WSW 21:50:13 12° WSW 21:50:13 12° WSW
Cosmos 2263 Rocket 2.4 21:46:58 10° NNW 21:52:25 52° ENE 21:52:51 51° ENE
YAOGAN 6 3.2 21:53:36 55° WNW 21:53:36 55° WNW 21:56:47 10° NNW
ASTEX 1 3.8 21:52:13 10° N 21:57:10 62° W 21:58:58 37° SW
Cosmos 540 Rocket 3.7 21:59:24 56° ENE 21:59:24 56° ENE 22:03:37 10° NNE
Cosmos 2346 Rocket 4.5 21:52:36 10° N 21:58:45 59° E 21:59:16 57° E
SL-08 RB Rocket 3.9 21:59:58 64° NE 21:59:58 64° NE 22:04:09 10° N
Tsikada Rocket 4.1 21:53:43 10° N 22:00:09 75° W 22:02:24 43° S
Cosmos 2322 Rocket 2.0 22:00:47 53° SSW 22:02:12 87° ESE 22:07:52 10° NNE
Meteor 2-5 Rocket 3.8 22:01:58 10° N 22:07:51 61° ENE 22:07:52 61° ENE
Meteor 2-17 Rocket 4.3 22:08:22 66° S 22:09:17 85° E 22:15:22 10° N
Cosmos 372 Rocket 3.9 22:09:18 10° NNW 22:14:11 80° NW 22:14:11 80° NW
Meteor 1-24 Rocket 4.4 22:13:17 10° N 22:18:34 45° ENE 22:18:34 45° ENE
Cosmos 371 Rocket 4.4 22:41:01 38° N 22:41:01 38° N 22:44:06 10° NNE
CZ-4B R/B 4.1 22:35:07 10° N 22:39:05 51° NW 22:39:05 51° NW
Cosmos 2278 Rocket 4.1 22:40:06 10° N 22:44:00 19° NE 22:44:03 19° NE
Cosmos 2233 Rocket 4.4 22:43:02 49° WSW 22:44:12 56° WNW 22:50:23 10° N
H-2A R/B 2.9 22:56:29 43° NW 22:56:29 43° NW 23:00:02 10° NNW
Terra 3.1 22:59:15 38° NW 22:59:15 38° NW 23:02:19 10° NNW
ARGOS 4.5 22:57:44 31° W 22:57:44 31° W 23:02:30 10° NNW
SL-16 R/B 3.5 22:57:52 25° WSW 23:00:22 37° NW 23:05:38 10° NNE
Cosmos 1844 Rocket 3.8 22:58:33 10° NNW 23:02:32 37° NNE 23:02:32 37° NNE
Cosmos 2034 Rocket 4.5 23:11:46 53° NNE 23:11:46 53° NNE 23:16:26 10° N
Cosmos 2360 Rocket 3.2 23:14:23 42° N 23:14:23 42° N 23:18:10 10° NNE
BREEZE-M DEB (TANK) 4.3 22:52:27 10° WNW 23:14:33 64° SW 23:14:38 64° SW
USA 215 3.5 23:21:34 63° WNW 23:21:34 63° WNW 23:27:02 10° NW
Cosmos 2219 Rocket 4.3 23:35:33 17° NE 23:35:33 17° NE 23:36:53 10° NE
Cosmos 2263 Rocket 4.1 23:31:38 10° NW 23:34:33 21° W 23:34:33 21° W
Cosmos 2237 Rocket 4.3 23:57:52 18° NE 23:57:52 18° NE 23:59:23 10° NE
